Location: Libas
(9.8833°N, 125.9833°E)
Time: 20:31:29
(UTC+00:00)

ATLAS 3B R/B - Pass Details

Date: 27 October 2020
Orbit: 1014 x 1181 km, 63.8° (Epoch: 23 November)

Event Time Altitude Azimuth Distance (km) Brightness Sun altitude
Exits shadow 19:36:17 15° 355° (N) 2,414 4.4 -27.3°
Drops below altitude 10° 19:37:28 10° 1° (N) 2,787 4.8 -27.0°
Sets 19:40:17 0° 9° (N) 3,740 5.6 -26.3°
